Wind_Speed
27 28 29 29 30 30 31 32 33 34 35 36 36 35 35 35 36 36 36 37 37 38 38 39 40 41 42 43 43 43 44 44 44 44 44 44 44 44 44 43 43 43 43 42
27 28 28 28 28 29 30 31 32 32 33 35 35 35 35 35 35 35 36 36 36 36 37 37 38 38 39 41 42 43 44 44 44 44 44 44 44 45 45 44 44 43 43 43
26 26 27 28 28 29 30 30 30 31 32 33 34 34 34 34 33 34 35 35 36 36 37 36 37 38 38 39 40 42 43 43 43 43 43 43 43 44 44 44 44 43 43 43
25 25 26 27 28 28 29 29 30 31 31 32 32 34 31 31 32 33 34 35 36 37 37 37 37 38 38 38 39 40 41 42 42 41 41 41 42 42 43 43 43 43 42 43
24 25 25 26 27 28 28 29 29 30 31 32 32 34 32 32 33 33 34 35 36 37 37 37 37 38 38 39 39 39 40 40 40 41 41 42 42 42 42 42 42 41 42 42
24 25 25 26 26 27 27 28 30 30 31 32 31 32 32 32 33 34 34 34 35 36 36 37 37 38 38 38 38 39 39 39 39 39 40 41 41 41 42 42 41 41 41 42
24 25 25 25 25 26 26 28 29 30 31 31 31 32 31 31 32 32 32 33 34 34 35 36 36 38 38 38 38 39 39 39 38 39 40 40 40 40 40 40 40 40 41 41
23 24 24 25 25 25 26 27 28 29 30 31 31 31 31 31 31 31 32 32 32 33 34 35 36 36 37 38 39 39 40 39 39 40 40 40 40 40 40 40 39 39 40 40
24 24 24 24 24 25 25 25 27 28 29 30 30 31 31 30 30 30 31 31 32 33 33 34 35 35 36 37 37 37 38 38 39 39 39 40 40 40 39 39 39 40 40 40
24 24 23 23 24 24 25 25 26 27 29 30 30 30 30 28 29 30 30 31 32 33 33 34 34 35 36 36 36 36 36 37 37 38 38 39 39 38 38 38 38 39 39 39
24 24 23 22 23 24 24 25 26 27 28 30 30 30 29 28 27 28 29 29 30 31 32 33 33 34 35 35 35 35 36 36 36 36 37 37 37 37 37 37 38 38 38 38
23 24 24 23 23 23 24 24 25 26 27 28 30 29 27 27 27 27 28 28 29 29 30 31 32 33 33 34 34 34 35 35 35 36 36 36 36 37 37 37 36 36 37 38
23 23 23 24 24 24 24 24 25 26 27 28 29 28 26 27 28 27 28 28 29 30 30 31 31 31 32 32 32 32 32 32 33 33 34 34 35 35 36 36 36 36 37 37
23 23 24 24 25 25 25 25 25 26 27 28 28 27 27 28 28 28 28 28 29 29 29 29 29 29 29 30 30 30 30 30 30 31 32 32 33 34 35 35 35 36 36 37
23 25 25 25 26 26 26 25 25 26 27 28 27 27 26 28 29 29 28 28 28 28 28 28 27 27 28 28 29 29 29 29 30 31 30 30 31 32 33 34 34 35 36 36
25 25 26 26 27 27 26 25 25 26 26 27 27 26 26 27 28 28 28 28 27 27 27 27 26 27 26 27 27 27 28 28 29 29 29 29 29 30 31 33 34 35 36 36
25 25 26 26 26 26 24 23 24 24 25 26 27 27 26 27 28 28 28 27 27 26 26 26 26 25 25 25 25 26 27 27 28 28 28 28 29 30 31 32 33 34 35 35
25 25 27 27 26 25 23 23 23 24 24 25 26 26 26 27 27 27 27 27 26 26 27 26 25 25 25 25 26 25 26 26 26 27 26 27 28 29 30 32 32 33 34 34
25 26 26 27 27 26 24 24 25 25 25 25 26 26 26 27 26 25 25 25 26 26 26 25 24 24 25 25 25 25 25 25 25 26 26 26 27 28 29 30 31 32 32 32
25 25 26 26 27 26 25 24 25 26 26 26 27 27 27 27 26 24 25 25 25 25 25 24 23 23 23 24 24 25 24 24 24 25 25 26 26 26 27 28 29 29 30 30
24 25 25 26 26 26 24 24 25 26 26 26 27 27 27 26 25 24 24 24 24 24 24 24 23 23 23 23 24 24 24 24 24 25 25 25 26 26 26 27 27 28 28 29
23 24 24 25 26 25 25 25 25 26 26 26 26 25 25 25 24 24 24 24 23 23 23 23 23 23 23 23 23 24 24 24 24 24 24 25 26 26 26 26 26 27 27 27
23 23 23 24 24 24 24 25 25 26 26 26 25 25 24 24 24 24 23 23 22 22 22 21 21 22 22 23 23 23 23 23 23 23 23 24 24 25 25 25 26 26 26 27
22 23 23 24 23 23 23 23 23 24 25 25 24 24 23 23 22 23 22 22 21 20 20 20 20 20 21 21 21 21 21 22 22 22 23 23 23 24 24 24 24 24 24 25
22 23 23 23 23 22 22 23 23 23 23 23 23 22 22 21 21 21 22 21 21 20 20 20 19 19 19 19 19 19 20 21 21 22 22 22 22 22 22 22 22 22 22 23
21 22 23 23 22 22 22 22 22 22 22 22 21 21 21 21 21 21 20 20 19 19 19 19 19 18 18 18 18 18 19 19 20 20 20 20 20 20 20 20 21 21 22 22
Wind_Direction
278 277 276 276 274 273 273 270 268 267 266 264 263 263 264 264 263 263 265 266 266 265 266 265 264 262 262 261 260 259 260 260 260 260 261 261 260 260 261 261 259 258 258 258
281 279 278 277 275 275 274 271 269 268 266 264 263 263 264 264 264 265 266 267 267 266 267 267 266 264 263 262 260 260 260 261 261 261 261 261 260 260 260 260 259 258 258 258
282 281 280 279 278 277 276 273 271 271 269 267 267 265 265 265 266 265 266 267 266 267 267 268 267 266 266 265 263 262 261 261 261 260 260 260 260 260 260 260 260 259 259 258
284 282 281 281 280 279 277 274 272 272 272 269 268 268 266 267 267 267 267 267 267 267 267 268 268 267 267 267 265 263 262 261 260 260 260 260 260 260 260 261 261 260 259 258
288 285 284 284 283 281 279 276 274 274 273 272 270 270 269 270 269 270 271 270 268 268 268 269 268 268 268 267 265 263 263 262 260 259 260 260 260 260 260 261 261 261 259 259
289 288 288 288 286 283 280 278 276 275 275 274 273 273 272 272 273 272 272 271 270 269 269 270 269 269 268 267 265 263 261 261 261 260 260 261 262 261 261 261 261 260 259 258
290 290 291 289 287 284 281 281 279 277 276 276 275 275 276 276 276 275 273 272 271 270 270 270 270 269 268 267 266 264 262 261 261 261 260 261 262 261 261 261 260 259 258 258
293 292 292 290 289 286 284 283 280 280 279 277 277 278 279 279 279 278 276 274 273 272 272 271 271 269 268 268 267 265 264 263 262 261 261 262 262 261 261 261 260 259 258 257
293 292 293 293 291 289 288 284 283 281 280 279 278 278 279 281 280 279 278 277 276 274 273 272 271 270 269 268 267 265 264 263 262 261 261 260 261 261 260 260 260 259 258 257
293 293 293 293 293 290 289 286 286 283 282 282 281 281 281 281 280 280 280 279 277 275 274 273 272 271 269 268 268 266 264 263 263 261 260 259 260 260 259 259 259 258 258 257
292 294 293 293 294 294 292 290 287 285 283 283 283 283 284 284 284 283 282 281 280 278 276 275 274 272 271 269 268 266 265 265 265 262 260 258 258 259 259 259 258 258 258 258
292 294 294 294 295 295 294 293 290 287 287 285 284 285 284 284 285 285 283 282 283 282 280 277 275 273 271 269 268 266 265 265 265 262 261 259 257 258 258 258 258 258 258 260
293 295 296 295 295 295 296 295 292 289 287 286 287 288 287 286 285 285 285 284 284 284 283 280 276 274 272 270 268 266 265 264 264 263 262 260 258 258 258 259 258 258 259 260
292 293 294 296 297 296 295 295 292 289 288 287 287 288 289 287 286 286 285 285 285 285 284 281 278 274 271 269 267 265 264 264 262 262 262 262 260 260 259 259 260 260 261 261
291 292 294 296 296 295 295 294 291 289 289 289 289 288 288 288 287 286 285 285 286 286 284 282 279 275 272 268 266 264 264 264 263 262 262 262 261 260 260 260 261 262 262 262
291 292 293 294 294 295 294 292 290 289 289 289 289 288 288 289 288 287 286 286 287 287 286 283 280 276 271 267 265 264 265 266 265 263 261 262 262 262 263 263 264 264 264 264
291 293 294 295 295 295 294 294 292 291 290 289 289 288 288 288 288 288 287 286 286 286 287 285 281 275 271 268 267 266 266 267 266 263 262 264 265 264 264 264 266 266 265 265
291 293 294 295 295 294 297 295 293 293 292 291 291 290 288 288 289 289 287 286 284 285 287 285 281 276 272 269 268 268 268 268 266 264 264 266 267 266 266 266 267 267 266 266
293 294 294 294 295 295 295 296 295 294 292 292 291 291 290 289 288 288 289 287 286 286 286 282 279 276 273 270 269 268 269 269 268 266 266 267 269 268 267 268 268 267 268 267
294 295 294 295 295 296 297 296 296 295 294 293 292 292 292 292 287 286 288 288 287 286 284 280 279 277 275 272 270 269 270 270 270 268 268 269 269 269 268 268 268 268 268 267
293 294 294 294 294 296 297 297 297 296 297 296 294 294 293 292 289 287 288 288 287 286 283 281 281 279 277 274 271 270 271 272 271 270 270 270 269 270 269 269 269 269 268 268
292 294 294 294 295 297 297 297 297 297 298 297 296 295 294 292 290 288 288 289 289 287 284 283 281 280 278 277 274 272 272 272 271 270 271 272 271 270 271 271 271 270 269 268
290 293 293 294 296 297 298 298 298 298 298 297 297 297 296 293 290 288 288 290 289 289 287 284 283 282 281 279 277 275 274 272 272 272 272 273 273 273 272 271 271 270 269 268
290 290 290 292 294 296 297 299 301 301 299 299 298 298 297 296 293 291 290 291 289 289 288 287 285 285 284 282 280 277 276 275 273 272 274 275 274 275 275 273 271 270 268 268
289 289 290 292 295 296 298 300 303 303 302 301 301 301 300 299 297 294 291 291 289 288 287 286 285 286 285 284 283 280 277 276 275 275 276 276 275 273 273 272 270 268 267 268
288 289 290 293 295 297 298 300 302 303 303 304 305 305 303 301 301 298 294 292 288 285 285 284 286 287 287 287 285 282 280 279 279 278 278 276 274 273 272 270 268 267 268 268
Height
5710 5710 5708 5707 5706 5705 5704 5703 5703 5703 5702 5702 5702 5702 5703 5703 5703 5703 5702 5702 5702 5702 5702 5702 5702 5703 5703 5704 5705 5706 5706 5707 5708 5708 5709 5710 5711 5711 5712 5712 5713 5714 5715 5716
5703 5702 5701 5699 5698 5696 5696 5694 5694 5694 5693 5692 5692 5693 5694 5693 5693 5693 5693 5693 5692 5692 5692 5692 5692 5692 5692 5693 5694 5695 5695 5696 5697 5697 5698 5699 5700 5700 5701 5701 5702 5703 5704 5705
5695 5694 5692 5691 5690 5688 5687 5686 5685 5685 5684 5684 5683 5684 5685 5684 5684 5684 5683 5683 5682 5682 5682 5681 5681 5681 5682 5682 5683 5683 5684 5685 5685 5686 5687 5688 5689 5689 5690 5691 5692 5693 5694 5695
5687 5686 5685 5683 5681 5680 5679 5678 5677 5676 5675 5675 5675 5674 5677 5675 5675 5674 5674 5673 5672 5672 5672 5671 5671 5671 5671 5671 5672 5673 5673 5674 5675 5675 5676 5677 5678 5679 5680 5680 5681 5682 5683 5684
5680 5679 5677 5675 5674 5672 5671 5670 5669 5668 5667 5666 5667 5665 5667 5666 5666 5665 5664 5663 5662 5662 5661 5661 5661 5661 5661 5661 5661 5662 5663 5663 5664 5665 5666 5667 5667 5668 5669 5670 5670 5671 5672 5674
5674 5672 5670 5668 5666 5664 5662 5662 5661 5660 5658 5658 5659 5657 5657 5657 5657 5655 5654 5653 5652 5652 5651 5651 5650 5650 5650 5650 5650 5651 5652 5653 5654 5655 5655 5656 5657 5657 5658 5659 5660 5661 5662 5663
5668 5665 5663 5661 5659 5657 5656 5654 5652 5650 5649 5649 5649 5648 5649 5648 5647 5645 5644 5643 5642 5641 5641 5640 5640 5640 5640 5639 5639 5640 5640 5642 5642 5644 5644 5645 5645 5646 5647 5648 5649 5650 5651 5652
5661 5659 5657 5654 5653 5651 5649 5647 5646 5643 5641 5641 5640 5639 5641 5639 5637 5635 5634 5633 5632 5631 5631 5630 5630 5629 5629 5629 5629 5629 5629 5630 5631 5632 5633 5634 5635 5636 5637 5638 5639 5640 5641 5642
5654 5653 5650 5648 5646 5644 5641 5640 5638 5635 5633 5632 5631 5631 5632 5630 5628 5626 5625 5623 5622 5621 5620 5620 5619 5619 5618 5618 5618 5618 5618 5619 5620 5621 5622 5623 5624 5625 5626 5627 5628 5629 5630 5632
5647 5646 5644 5641 5639 5637 5635 5633 5631 5628 5625 5624 5623 5623 5623 5621 5619 5618 5616 5613 5612 5611 5610 5609 5609 5609 5608 5607 5607 5607 5607 5608 5609 5610 5611 5612 5613 5614 5615 5616 5618 5619 5620 5621
5641 5639 5638 5636 5633 5631 5629 5626 5623 5621 5619 5617 5615 5617 5615 5612 5610 5609 5606 5604 5603 5601 5600 5600 5599 5598 5597 5597 5596 5596 5597 5597 5598 5599 5600 5601 5603 5604 5605 5606 5607 5608 5609 5610
5634 5632 5631 5629 5627 5624 5621 5619 5617 5615 5612 5610 5607 5610 5607 5605 5602 5600 5598 5596 5594 5592 5591 5589 5588 5587 5587 5586 5586 5586 5586 5587 5587 5588 5589 5590 5592 5594 5595 5596 5597 5598 5599 5600
5628 5626 5624 5623 5622 5619 5615 5613 5610 5607 5605 5603 5601 5602 5599 5597 5594 5592 5590 5588 5585 5584 5582 5580 5579 5578 5577 5576 5576 5576 5576 5577 5577 5578 5579 5580 5582 5583 5585 5586 5587 5588 5589 5590
5622 5620 5619 5617 5614 5611 5608 5606 5603 5600 5597 5596 5594 5593 5592 5589 5586 5584 5582 5579 5577 5575 5573 5571 5570 5569 5568 5567 5567 5567 5567 5567 5568 5569 5570 5571 5572 5573 5575 5576 5577 5578 5579 5579
5615 5614 5612 5610 5607 5604 5601 5599 5596 5593 5591 5589 5587 5585 5584 5581 5579 5577 5574 5571 5569 5567 5565 5563 5561 5560 5559 5558 5558 5558 5558 5559 5559 5560 5561 5561 5562 5563 5565 5566 5567 5567 5568 5569
5608 5607 5605 5603 5600 5596 5594 5592 5589 5586 5584 5581 5579 5578 5576 5573 5571 5568 5566 5564 5561 5559 5557 5555 5553 5552 5551 5550 5550 5550 5550 5550 5550 5551 5552 5553 5553 5554 5555 5556 5556 5557 5558 5558
5602 5599 5597 5595 5592 5589 5587 5585 5582 5579 5577 5574 5572 5571 5568 5566 5563 5560 5558 5556 5553 5551 5549 5547 5545 5544 5543 5543 5542 5542 5542 5542 5542 5542 5543 5544 5545 5545 5546 5546 5547 5547 5547 5547
5595 5592 5589 5587 5585 5582 5583 5578 5575 5572 5570 5567 5565 5563 5560 5558 5555 5552 5550 5548 5546 5544 5542 5539 5538 5536 5536 5535 5535 5535 5534 5534 5534 5534 5535 5535 5536 5536 5536 5536 5537 5537 5537 5537
5588 5585 5582 5580 5577 5575 5575 5571 5568 5565 5563 5561 5558 5556 5553 5550 5548 5546 5543 5540 5538 5536 5534 5532 5530 5529 5528 5528 5527 5527 5527 5526 5526 5526 5527 5527 5527 5527 5527 5527 5527 5527 5527 5527
5580 5578 5576 5573 5569 5568 5569 5565 5561 5559 5556 5554 5551 5548 5546 5543 5541 5540 5536 5533 5531 5529 5526 5524 5523 5522 5521 5520 5520 5519 5519 5519 5519 5519 5519 5519 5518 5518 5518 5518 5518 5518 5518 5518
5574 5571 5569 5566 5562 5561 5561 5557 5555 5553 5551 5547 5543 5541 5538 5535 5533 5532 5529 5526 5524 5522 5520 5518 5516 5515 5514 5513 5512 5512 5512 5512 5511 5511 5511 5511 5510 5510 5510 5509 5509 5509 5509 5509
5566 5564 5562 5559 5556 5557 5553 5550 5548 5546 5542 5539 5536 5533 5530 5528 5526 5524 5522 5520 5517 5515 5513 5511 5510 5508 5507 5506 5505 5505 5505 5504 5504 5503 5503 5503 5502 5502 5502 5501 5501 5501 5501 5501
5559 5558 5555 5553 5553 5549 5546 5543 5540 5538 5535 5532 5529 5526 5523 5521 5519 5517 5515 5513 5511 5509 5506 5505 5503 5502 5500 5499 5498 5498 5497 5497 5496 5496 5496 5495 5495 5494 5494 5493 5493 5493 5493 5493
5552 5550 5548 5546 5544 5542 5539 5536 5534 5531 5528 5525 5522 5519 5517 5514 5512 5510 5509 5507 5505 5502 5500 5499 5497 5496 5494 5493 5491 5491 5490 5489 5489 5489 5488 5488 5487 5486 5486 5486 5485 5485 5485 5485
5545 5543 5540 5539 5538 5535 5533 5530 5528 5525 5521 5519 5516 5513 5510 5508 5506 5504 5502 5500 5498 5496 5494 5493 5491 5490 5488 5487 5486 5484 5483 5483 5482 5481 5481 5480 5480 5479 5479 5478 5478 5478 5478 5478
5539 5536 5535 5533 5531 5529 5527 5524 5521 5519 5516 5513 5510 5508 5505 5502 5500 5498 5496 5494 5492 5491 5489 5487 5486 5485 5483 5481 5480 5478 5477 5476 5476 5475 5474 5473 5473 5472 5472 5472 5471 5471 5471 5471